AVA9255 SKAR-SKRG

Flight info

Callsign AVA9255
Flight time 0h 28m
Altitude 20000
Route PEI3G PEI W3 ISVON ISVON4A
Aircraft A320/M-SDE3FGHIRWY/LB1

Departure

Time 2026-05-04 23:08
Airport El Eden Airport (SKAR)

Arrival

Time 2026-05-04 23:37
Airport Jose Maria Córdova International Airport (SKRG)
Time Latitude Longitude Altitude Speed Heading
2026-05-04 22:44 4.45319 -75.76738 3987 ft 0 kts 283°
2026-05-04 23:00 4.45316 -75.76724 3979 ft 3 kts 291°
2026-05-04 23:01 4.45305 -75.76705 3976 ft 3 kts 318°
2026-05-04 23:01 4.45288 -75.76696 3986 ft 3 kts
2026-05-04 23:01 4.45283 -75.76696 3986 ft 0 kts 14°
2026-05-04 23:03 4.45299 -75.76692 3982 ft 5 kts 14°
2026-05-04 23:04 4.45320 -75.76687 3986 ft 4 kts 14°
2026-05-04 23:04 4.45339 -75.76675 3986 ft 2 kts 41°
2026-05-04 23:04 4.45345 -75.76667 3985 ft 0 kts 52°
2026-05-04 23:05 4.45361 -75.76647 3980 ft 9 kts 52°
2026-05-04 23:05 4.45398 -75.76601 3980 ft 9 kts 51°
2026-05-04 23:06 4.45443 -75.76569 3985 ft 13 kts 17°
2026-05-04 23:06 4.45557 -75.76541 3981 ft 17 kts 14°
2026-05-04 23:06 4.45667 -75.76513 3979 ft 15 kts 14°
2026-05-04 23:06 4.45766 -75.76490 3987 ft 16 kts 13°
2026-05-04 23:07 4.45903 -75.76456 3983 ft 23 kts 13°
2026-05-04 23:07 4.46054 -75.76421 3985 ft 21 kts 12°
2026-05-04 23:07 4.46155 -75.76417 3984 ft 8 kts 14°
2026-05-04 23:07 4.46144 -75.76396 3984 ft 8 kts 193°
2026-05-04 23:08 4.45941 -75.76447 3978 ft 63 kts 195°
2026-05-04 23:08 4.45292 -75.76605 3984 ft 127 kts 193°
2026-05-04 23:08 4.44264 -75.76858 4092 ft 167 kts 195°
2026-05-04 23:08 4.43136 -75.77144 4768 ft 169 kts 193°
2026-05-04 23:09 4.41981 -75.77407 5391 ft 171 kts 193°
2026-05-04 23:09 4.40819 -75.77676 5996 ft 171 kts 196°
2026-05-04 23:09 4.39658 -75.77955 6556 ft 172 kts 199°
2026-05-04 23:09 4.38663 -75.78538 7086 ft 166 kts 233°
2026-05-04 23:10 4.38144 -75.79583 7413 ft 180 kts 250°
2026-05-04 23:10 4.37710 -75.80840 7671 ft 199 kts 249°
2026-05-04 23:10 4.37248 -75.82171 8126 ft 206 kts 248°
2026-05-04 23:10 4.36770 -75.83536 8674 ft 209 kts 248°
2026-05-04 23:11 4.36283 -75.84919 9238 ft 210 kts 248°
2026-05-04 23:11 4.35790 -75.86312 9776 ft 214 kts 248°
2026-05-04 23:11 4.35287 -75.87727 10301 ft 217 kts 249°
2026-05-04 23:11 4.34775 -75.89164 10832 ft 221 kts 249°
2026-05-04 23:12 4.34262 -75.90622 11352 ft 224 kts 252°
2026-05-04 23:12 4.33952 -75.92192 11647 ft 240 kts 260°
2026-05-04 23:12 4.33683 -75.93927 11779 ft 265 kts 261°
2026-05-04 23:12 4.33393 -75.95833 12030 ft 289 kts 261°
2026-05-04 23:13 4.33083 -75.97895 12408 ft 306 kts 261°
2026-05-04 23:13 4.32759 -76.00026 13029 ft 313 kts 261°
2026-05-04 23:13 4.32424 -76.02203 13740 ft 318 kts 261°
2026-05-04 23:13 4.32078 -76.04412 14416 ft 323 kts 261°
2026-05-04 23:14 4.31788 -76.06660 15081 ft 328 kts 269°
2026-05-04 23:14 4.32198 -76.08909 15706 ft 333 kts 294°
2026-05-04 23:14 4.33510 -76.10810 16318 ft 335 kts 320°
2026-05-04 23:14 4.35489 -76.12005 16924 ft 335 kts 343°
2026-05-04 23:15 4.37728 -76.12675 17562 ft 337 kts 346°
2026-05-04 23:15 4.40001 -76.13320 18176 ft 341 kts 347°
2026-05-04 23:15 4.42340 -76.13732 18727 ft 343 kts 358°
2026-05-04 23:15 4.44719 -76.13699 18895 ft 341 kts
2026-05-04 23:16 4.47078 -76.13180 18944 ft 357 kts 21°
2026-05-04 23:16 4.49402 -76.12143 18952 ft 376 kts 32°
2026-05-04 23:16 4.51546 -76.10609 18952 ft 392 kts 43°
2026-05-04 23:16 4.53496 -76.08661 18972 ft 399 kts 47°
2026-05-04 23:17 4.55457 -76.06686 18971 ft 402 kts 44°
2026-05-04 23:17 4.57759 -76.05091 18970 ft 405 kts 30°
2026-05-04 23:17 4.60258 -76.03791 18969 ft 405 kts 28°
2026-05-04 23:17 4.62771 -76.02505 18958 ft 405 kts 28°
2026-05-04 23:18 4.65284 -76.01229 18961 ft 405 kts 28°
2026-05-04 23:18 4.66950 -76.00386 18962 ft 405 kts 28°
2026-05-04 23:18 4.69499 -75.99098 18963 ft 405 kts 28°
2026-05-04 23:18 4.72010 -75.97825 18958 ft 405 kts 28°
2026-05-04 23:19 4.74489 -75.96566 18962 ft 405 kts 28°
2026-05-04 23:19 4.76998 -75.95289 18962 ft 405 kts 28°
2026-05-04 23:19 4.79508 -75.94012 18958 ft 405 kts 28°
2026-05-04 23:19 4.82020 -75.92735 18959 ft 405 kts 28°
2026-05-04 23:20 4.84528 -75.91453 18960 ft 405 kts 29°
2026-05-04 23:20 4.87024 -75.90145 18964 ft 405 kts 30°
2026-05-04 23:20 4.89513 -75.88824 18968 ft 405 kts 30°
2026-05-04 23:20 4.91996 -75.87499 18983 ft 405 kts 30°
2026-05-04 23:21 4.94482 -75.86175 18990 ft 405 kts 30°
2026-05-04 23:21 4.96974 -75.84853 19000 ft 405 kts 30°
2026-05-04 23:21 4.99465 -75.83534 19008 ft 405 kts 29°
2026-05-04 23:21 5.01957 -75.82218 19018 ft 405 kts 29°
2026-05-04 23:22 5.04452 -75.80903 19030 ft 405 kts 30°
2026-05-04 23:22 5.06946 -75.79588 19032 ft 405 kts 29°
2026-05-04 23:22 5.09445 -75.78271 19030 ft 406 kts 29°
2026-05-04 23:22 5.11943 -75.76954 19023 ft 405 kts 29°
2026-05-04 23:23 5.14435 -75.75639 19018 ft 405 kts 29°
2026-05-04 23:23 5.16928 -75.74323 19019 ft 405 kts 29°
2026-05-04 23:23 5.19418 -75.73006 19068 ft 404 kts 30°
2026-05-04 23:23 5.21906 -75.71685 19103 ft 405 kts 30°
2026-05-04 23:24 5.24402 -75.70359 19125 ft 406 kts 30°
2026-05-04 23:24 5.26900 -75.69035 19142 ft 406 kts 29°
2026-05-04 23:24 5.29403 -75.67712 19161 ft 413 kts 29°
2026-05-04 23:24 5.31985 -75.66344 19163 ft 424 kts 29°
2026-05-04 23:25 5.34603 -75.64960 19164 ft 427 kts 29°
2026-05-04 23:25 5.37232 -75.63571 19164 ft 427 kts 29°
2026-05-04 23:25 5.39863 -75.62179 19163 ft 427 kts 29°
2026-05-04 23:25 5.42489 -75.60785 18907 ft 424 kts 29°
2026-05-04 23:26 5.45048 -75.59428 18743 ft 408 kts 30°
2026-05-04 23:26 5.47522 -75.58119 18440 ft 397 kts 30°
2026-05-04 23:26 5.49951 -75.56837 17933 ft 392 kts 30°
2026-05-04 23:26 5.52352 -75.55569 17386 ft 388 kts 30°
2026-05-04 23:27 5.54733 -75.54309 16807 ft 386 kts 30°
2026-05-04 23:27 5.57095 -75.53059 16240 ft 383 kts 29°
2026-05-04 23:27 5.59442 -75.51817 15701 ft 380 kts 29°
2026-05-04 23:27 5.61774 -75.50582 15164 ft 380 kts 29°
2026-05-04 23:28 5.64095 -75.49354 14667 ft 375 kts 29°
2026-05-04 23:28 5.66400 -75.48135 14110 ft 373 kts 29°
2026-05-04 23:28 5.68684 -75.46926 13565 ft 370 kts 29°
2026-05-04 23:28 5.70947 -75.45725 13071 ft 363 kts 29°
2026-05-04 23:29 5.73101 -75.44581 12896 ft 336 kts 29°
2026-05-04 23:29 5.75072 -75.43536 12892 ft 306 kts 29°
2026-05-04 23:29 5.76873 -75.42642 12899 ft 281 kts 21°
2026-05-04 23:29 5.78699 -75.42235 12871 ft 259 kts
2026-05-04 23:30 5.80444 -75.42220 12701 ft 244 kts
2026-05-04 23:30 5.82117 -75.42221 12333 ft 238 kts
2026-05-04 23:30 5.83764 -75.42220 11954 ft 234 kts
2026-05-04 23:30 5.85391 -75.42217 11918 ft 235 kts
2026-05-04 23:31 5.87018 -75.42215 11951 ft 229 kts
2026-05-04 23:31 5.88594 -75.42184 11916 ft 225 kts
2026-05-04 23:31 5.90119 -75.42150 11730 ft 215 kts
2026-05-04 23:31 5.91594 -75.42151 11471 ft 209 kts
2026-05-04 23:32 5.93031 -75.42160 11204 ft 205 kts
2026-05-04 23:32 5.94442 -75.42170 10934 ft 201 kts
2026-05-04 23:32 5.95826 -75.42178 10674 ft 198 kts
2026-05-04 23:32 5.97192 -75.42187 10413 ft 195 kts
2026-05-04 23:33 5.98538 -75.42196 10159 ft 193 kts
2026-05-04 23:33 5.99875 -75.42204 9899 ft 192 kts
2026-05-04 23:33 6.01213 -75.42213 9646 ft 192 kts 360°
2026-05-04 23:33 6.02550 -75.42222 9394 ft 193 kts
2026-05-04 23:34 6.03885 -75.42230 9135 ft 191 kts 360°
2026-05-04 23:34 6.05171 -75.42239 8878 ft 182 kts
2026-05-04 23:34 6.06400 -75.42247 8650 ft 173 kts 360°
2026-05-04 23:34 6.07578 -75.42255 8430 ft 168 kts 359°
2026-05-04 23:35 6.08727 -75.42262 8221 ft 163 kts
2026-05-04 23:35 6.09861 -75.42269 7995 ft 164 kts
2026-05-04 23:35 6.10993 -75.42277 7769 ft 163 kts
2026-05-04 23:35 6.12116 -75.42278 7558 ft 160 kts 359°
2026-05-04 23:36 6.13230 -75.42294 7340 ft 159 kts 359°
2026-05-04 23:36 6.14338 -75.42298 7137 ft 159 kts 359°
2026-05-04 23:36 6.15434 -75.42305 6982 ft 149 kts 359°
2026-05-04 23:36 6.16310 -75.42312 6986 ft 101 kts 360°
2026-05-04 23:37 6.16826 -75.42315 7015 ft 35 kts 359°
2026-05-04 23:37 6.17026 -75.42365 7022 ft 26 kts 334°
2026-05-04 23:37 6.17164 -75.42448 7019 ft 15 kts 327°
2026-05-04 23:37 6.17191 -75.42530 7017 ft 13 kts 270°
2026-05-04 23:38 6.17168 -75.42612 7017 ft 10 kts 214°
2026-05-04 23:38 6.17111 -75.42614 7017 ft 7 kts 178°
2026-05-04 23:38 6.17098 -75.42616 7018 ft 0 kts 188°
2026-05-04 23:39 6.17079 -75.42621 7016 ft 8 kts 200°
2026-05-04 23:39 6.17019 -75.42666 7018 ft 10 kts 233°
2026-05-04 23:39 6.17033 -75.42705 7016 ft 3 kts 310°
2026-05-04 23:39 6.17038 -75.42712 7016 ft 1 kts 310°